Location: Carson
(33.8314°N, 118.2820°W)
Time: 14:00:19
(UTC+00:00)

Cosmos 389 Rocket - Pass Details

Date: 23 November 2020
Orbit: 442 x 473 km, 81.1° (Epoch: 21 January)

Event Time Altitude Azimuth Distance (km) Brightness Sun altitude
Exits shadow 13:05:03 39° 336° (NNW) 696 3.0 -18.2°
Maximum altitude 13:06:12 70° 264° (W) 482 2.2 -18.0°
Drops below altitude 10° 13:09:38 10° 180° (S) 1,584 5.3 -17.3°
Sets 13:11:43 0° 177° (S) 2,458 6.4 -16.8°
